User: anonymous   Login
Location: Heilwood
(40.6210°N, 78.9150°W)
Time: 05:21:02
(UTC-04:00)
Language:

BREEZE-M DEB (TANK) - Orbit

View from above orbital plane
View from above orbital plane
View from above satellite
View from above satellite

Ground track
Ground track

The orbit data is extracted from the following two-line orbital elements,

1 29649U 06056B   17083.90390139 +.00002446 +00000-0 +55122-3 0  9994
2 29649 049.4924 295.2952 5373581 108.7653 314.8835 04.99334416183579
Epoch (UTC): 24 March 2017 21:41:37
Eccentricity: 0.5373581
inclination: 49.4924°
perigee height: 311 km
apogee height: 15850 km
right ascension of ascending node: 295.2952°
argument of perigee: 108.7653°
revolutions per day: 4.99334416
mean anomaly at epoch: 314.8835°
orbit number at epoch: 18357

The dashed part of the orbit path shows where the satellite is in the earth's shadow,  

DLR